Location: Fort Lauderdale
(26.1220°N, 80.1440°W)
Time: 08:41:09
(UTC-05:00)

OTV 5 (USA 277) - Pass Details

Date: 28 October 2019
Orbit: 310 x 324 km, 54.5° (Epoch: 17 October)

Event Time Altitude Azimuth Distance (km) Brightness Sun altitude
Rises 19:02:36 0° 231° (SW) 2,035 ? -5.4°
Reaches altitude 10° 19:04:37 10° 240° (WSW) 1,212 ? -5.9°
Maximum altitude 19:07:08 36° 310° (NW) 523 ? -6.4°
Drops below altitude 10° 19:09:41 10° 20° (NNE) 1,224 ? -7.0°
Enters shadow 19:11:24 - 29° (NNE) 1,916 ? -7.3°
